Tracking 33744 objects as of 13-Apr-2026
HD Live streaming from Space Station
objects crossing your sky now

STARLINK-36780

Track STARLINK-36780 now!
10-day predictions
STARLINK-36780 is classified as:


NORAD ID: 67866
Int'l Code: 2026-034S
Perigee: 481.1 km
Apogee: 483.6 km
Inclination: 53.2 °
Period: 94.1 minutes
Semi major axis: 6853 km
RCS: Unknown
Launch date: February 20, 2026
Source: United States (US)
Launch site: AIR FORCE EASTERN TEST RANGE (AFETR)
Your satellite tracking list
Your tracking list is empty




NASA's NSSDC Master Catalog

Two Line Element Set (TLE):
1 67866U 26034S   26102.84020200  .00013986  00000-0  48333-3 0  9996
2 67866  53.1606  45.6597 0001834  93.2630 266.8581 15.30206813  9263
Source of the keplerian elements: AFSPC